Location: Newark
(25.6108°S, 54.5803°W)
Time: 16:48:20
(UTC+00:00)

Courier 1B Rocket - Pass Details

Date: 30 October 2020
Orbit: 920 x 1202 km, 28.2° (Epoch: 22 November)

Event Time Altitude Azimuth Distance (km) Brightness Sun altitude
Rises 07:28:30 0° 309° (NW) 4,056 - -18.2°
Reaches altitude 10° 07:31:31 10° 315° (NW) 3,070 - -17.5°
Exits shadow 07:33:47 20° 323° (NW) 2,379 6.5 -17.1°
Maximum altitude 07:38:40 45° 24° (NNE) 1,494 5.9 -16.1°
Drops below altitude 10° 07:45:25 10° 94° (E) 2,901 8.7 -14.7°
Sets 07:48:11 0° 100° (E) 3,814 9.8 -14.1°
